Regional Weather Roundup
Issued by NWS

Home | Current Version | Previous Version | Graphics & Text | Print | Product List | Glossary On
Versions: 1 2 3 4 5 6 7 8 9 10 11 12 13 14 15 16 17 18 19 20 21 22 23 24 25 26 27 28 29 30 31 32 33 34 35 36 37 38 39 40 41 42 43 44 45 46 47 48 49 50
000
ASUS43 KDMX 240007
RWRIA

WEATHER ROUNDUP FOR IOWA
NATIONAL WEATHER SERVICE DES MOINES IA
600 PM CST SUN NOV 23 2014

NOTE: "FAIR" INDICATES FEW OR NO CLOUDS BELOW 12,000 FEET WITH NO
SIGNIFICANT WEATHER AND/OR OBSTRUCTIONS TO VISIBILITY.

* - THESE STATIONS ARE NOT NWS STATIONS...THUS NOT UNDER NWS
QUALITY CONTROL.  THEY ALSO DO NOT REPORT WEATHER SUCH
AS PRECIPITATION OR FOG.

IAZ001>003-012>014-020>022-031>034-043>046-240100-
   NORTHWEST IOWA

CITY           SKY/WX    TMP DP  RH WIND       PRES   REMARKS
CARROLL *      CLOUDY    39  37  93 NW22G31   29.46R WCI  29
CHEROKEE *     CLOUDY    40  33  78 NW15G21   29.51S WCI  31
DENISON *      CLOUDY    41  36  81 NW15G22   29.48S
LE MARS *      MOCLDY    39  32  75 NW12G21   29.54F WCI  32
ORANGE CITY *  CLOUDY    39  30  70 NW15      29.52S WCI  31
SHELDON *      CLOUDY    37  30  75 NW14G25   29.50S WCI  29
SIOUX CITY     CLOUDY    42  30  62 NW15      29.53F
6HR MIN TEMP:  42; 6HR MAX TEMP:  46; 6HR PCP: TRACE;

SPENCER        CLOUDY    39  31  72 NW18G24   29.49R WCI  30
6HR MIN TEMP:  39; 6HR MAX TEMP:  49; 6HR PCP: TRACE;

STORM LAKE *   CLOUDY    39  34  81 NW25G37   29.48F WCI  28
$$

IAZ055>058-069>071-079>083-090>094-240100-
   SOUTHWEST IOWA

CITY           SKY/WX    TMP DP  RH WIND       PRES   REMARKS
ATLANTIC *     LGT RAIN  41  37  87 N17G26    29.47S
AUDUBON *      CLOUDY    39  34  81 NW17G24   29.47R WCI  30
CLARINDA *     CLOUDY    41  37  87 N25G31    29.48R
COUNCIL BLFS * CLOUDY    43  37  81 N21G29    29.49R
CRESTON *      MIX PCPN  41  41 100 NW22G31   29.42R
HARLAN  *      CLOUDY    41  37  87 NW18G25   29.52R
LAMONI         CLOUDY    44  41  89 N24G32    29.36S
6HR MIN TEMP:  44; 6HR MAX TEMP:  54; 6HR PCP: TRACE;

RED OAK *      CLOUDY    41  37  87 NW14G22   29.48S
SHENANDOAH *   CLOUDY    41  37  87 N14G21    29.50R
$$

IAZ047>049-059>061-072>074-084-240100-
   CENTRAL IOWA

CITY           SKY/WX    TMP DP  RH WIND       PRES   REMARKS
AMES           CLOUDY    44  40  85 NW18G30   29.38R
6HR MIN TEMP:  44; 6HR MAX TEMP:  54; 6HR PCP:  0.10;

ANKENY *       CLOUDY    46  43  87 NW21G29   29.37R
CHARITON *     CLOUDY    45  43  93 NW21G26   29.34F
DES MOINES     DRIZZLE   46  41  82 NW22G28   29.38R
6HR MIN TEMP:  46; 6HR MAX TEMP:  54; 6HR PCP:  0.04;

GRINNELL*      CLOUDY    48  48 100 NW15      29.31F
KNOXVILLE *    CLOUDY    46  45  93 NW20      29.33R
MARSHALLTOWN   CLOUDY    44  42  93 NW17      29.32F
6HR MIN TEMP:  44; 6HR MAX TEMP:  51; 6HR PCP:  0.07;

PELLA *        CLOUDY    47  47  99 NW14G21   29.34R FOG
PERRY *        LGT SNOW  41  41 100 NW22G30   29.43R
$$

IAZ004>006-015-016-023>025-035-036-240100-
   NORTH CENTRAL IOWA

CITY           SKY/WX    TMP DP  RH WIND       PRES   REMARKS
ALGONA *       LGT RAIN  39  36  87 NW15G24   29.45R WCI  31
CLARION *      CLOUDY    41  41 100 NW17G26   29.40S
ESTHERVILLE    CLOUDY    39  34  82 NW21      29.45S WCI  29
6HR MIN TEMP:  39; 6HR MAX TEMP:  47;

FORT DODGE *   CLOUDY    41  37  87 NW9G18    29.44R
MASON CITY     CLOUDY    41  39  93 NW18      29.39S
6HR MIN TEMP:  41; 6HR MAX TEMP:  52; 6HR PCP: TRACE;

FOREST CITY *  CLOUDY    41  41 100 NW17      29.40S
IOWA FALLS *   CLOUDY    43  39  87 NW21G31   29.36F
$$

IAZ007>011-017>019-026>030-037>042-050>054-066-240100-
   NORTHEAST IOWA

CITY           SKY/WX    TMP DP  RH WIND       PRES   REMARKS
CEDAR RAPIDS   LGT RAIN  49  49 100 CALM      29.29F VSB 1/2
6HR MIN TEMP:  49; 6HR MAX TEMP:  50; 6HR PCP:  0.36;

CHARLES CITY * CLOUDY    43  43 100 NW18      29.34F FOG
CLINTON *      CLOUDY    48  46  93 SE12      29.32F
DECORAH *      CLOUDY    46  46 100 SE5       29.31F FOG
DUBUQUE        LGT RAIN  48  48 100 SE8       29.31F FOG
6HR MIN TEMP:  47; 6HR MAX TEMP:  48; 6HR PCP:  0.43;

MONTICELLO *   CLOUDY    48  48 100 E3        29.29F FOG
OELWEIN *      FOG       46  46 100 E3        29.31F VSB 1/2
WATERLOO       LGT RAIN  47  47 100 CALM      29.31F VSB 1/2
6HR MIN TEMP:  47; 6HR MAX TEMP:  50; 6HR PCP:  0.05;

$$

IAZ064-065-067-068-078-240100-
   EAST CENTRAL IOWA

CITY           SKY/WX    TMP DP  RH WIND       PRES   REMARKS
DAVENPORT      LGT RAIN  50  48  93 SE6       29.30F FOG
6HR MIN TEMP:  50; 6HR MAX TEMP:  52; 6HR PCP:  0.37;

IOWA CITY      FOG       49  50 100 CALM      29.30F VSB 3/4
6HR MIN TEMP:  49; 6HR MAX TEMP:  51; 6HR PCP:  0.21;

MT. PLEASANT * CLOUDY    50  50 100 S3        29.29F FOG
MUSCATINE *    LGT RAIN  52  50  93 CALM      29.29F VSB 1/4
QUAD CITIES    CLOUDY    51  49  92 CALM      29.29F FOG
6HR MIN TEMP:  51; 6HR MAX TEMP:  53; 6HR PCP:  0.24;

$$

IAZ062-063-075>077-085>089-095>099-240100-
   SOUTHEAST IOWA

CITY           SKY/WX    TMP DP  RH WIND       PRES   REMARKS
BURLINGTON     FOG       51  51 100 SW3       29.28F VSB 1/2
6HR MIN TEMP:  51; 6HR MAX TEMP:  52; 6HR PCP:  0.38;

FAIRFIELD *    CLOUDY    52  52 100 SW3       29.29F
FORT MADISON * CLOUDY    54  54 100 SW3       29.29F FOG
KEOKUK *       FOG       54  52  94 SW5       29.28F VSB 1/4
OSKALOOSA *    CLOUDY    50  50  98 NW5       29.30F FOG
CENTERVILLE *  LGT RAIN  50  50 100 W15G21    29.32S
OTTUMWA        CLOUDY    52  51  97 NW7       29.29F
6HR MIN TEMP:  52; 6HR MAX TEMP:  53; 6HR PCP:  0.20;

WASHINGTON *   CLOUDY    50  50 100 CALM      29.29F
$$

ABBREVIATIONS USED IN REMARKS
   TC - TEMPERATURES IN CELSIUS
  WCI - WIND CHILL INDEX
   HX - HEAT INDEX
  VSB - VISIBILITY
$$



USA.gov is the U.S. government's official web portal to all federal, state and local government web resources and services.